STARLINK-4491 (53408 NORAD) Tracking and Keplerian Element Data

This shows tracking and keplerian element data for the satellite.

Feedback or suggestion? Click here.




ElementValue
Catalog53408
NameSTARLINK-4491
Epoch Orbit130
Epoch Day269.91667824
Epoch Year2022
RAAN12.9895
Inclination53.2165
Eccentricity0.0001892
Argument of Perigee36.8913
Mean Anonmoly166.8839
Mean Motion15.49904412
Decay Rate-7.601E-05
L11 53408U 22097W 22269.91667824 -.00007601 00000+0 -12599-3 0 9998
L22 53408 53.2165 12.9895 0001892 36.8913 166.8839 15.49904412 1302

Live tracking and technical data element details for STARLINK-4491 (NORAD 53408). STARLINK-4491 can be tracked NOW for your location showing map with azimuth and elevation plus other details from your city location.

Track the satellite on the map from your city or location and see movement details for azimuth, elevation, latitude, longitude, range, height, and movement on the map or in text.







IsCatalogInMostPopularTable: catalog: 53408, numindb: 2
Update: records affected: 1



GetName: 53408 STARLINK-4491

Hit Count: updated at: Wed, 28 Sep 2022 22:34:43 GMT